ON1TG-13 Weather Reports


time (UTC)temp
C
wind
direction
speed
KPH
gust
KPH
rain 1hr
cm
rain 24hr
cm
rain mn
cm
humidity
%
barometer
mb
20260902024342 0 183 8.0 16.1 0.00 0.00 0.00 100
20260902022720 0 199 11.3 19.3 0.00 0.00 0.00 100
20260902021057 0 189 11.3 19.3 0.00 0.00 0.00 100
20260902015421 0 189 11.3 20.9 0.00 0.00 0.00 100
20260902013743 0 194 11.3 20.9 0.00 0.00 0.00 100
20260902012126 0 194 11.3 24.1 0.00 0.00 0.00 100
20260902010501 0 200 11.3 20.9 0.00 0.00 0.00 100
20260902004839 0 188 11.3 20.9 0.00 0.00 0.00 100
20260902003217 0 194 11.3 24.1 0.00 0.00 0.00 100
20260902001557 0 190 9.7 19.3 0.00 0.00 0.00 100
20260901234332 0 184 11.3 17.7 0.00 0.00 0.00 100
20260901232715 0 192 11.3 19.3 0.00 0.00 0.00 100
20260901231117 0 195 11.3 17.7 0.00 0.00 0.00 100
20260901225525 0 193 9.7 17.7 0.00 0.00 0.00 100
20260901223938 0 194 12.9 20.9 0.00 0.00 0.00 100
20260901220823 0 175 8.0 17.7 0.00 0.00 0.00 100
20260901215251 0 183 8.0 19.3 0.00 0.00 0.00 100
20260901213735 0 203 11.3 17.7 0.00 0.00 0.00 100
20260901212227 0 196 9.7 19.3 0.00 0.00 0.00 100
20260901210713 0 199 16.1 25.7 0.00 0.00 0.00 100
20260901205202 0 194 12.9 19.3 0.00 0.00 0.00 100
20260901203654 0 192 9.7 19.3 0.00 0.00 0.00 100
20260901202141 0 196 11.3 24.1 0.00 0.00 0.00 100
20260901200631 0 210 11.3 17.7 0.00 0.00 0.00 100
20260901195123 0 216 12.9 22.5 0.00 0.00 0.00 100
20260901193616 0 207 14.5 19.3 0.00 0.00 0.00 100
20260901192107 0 205 11.3 16.1 0.00 0.00 0.00 100
20260901190600 0 198 9.7 17.7 0.00 0.00 0.00 100
20260901185053 0 200 12.9 24.1 0.00 0.00 0.00 100
20260901183546 0 213 14.5 22.5 0.00 0.00 0.00 100
20260901182039 0 232 11.3 22.5 0.00 0.00 0.00 100
20260901180532 0 253 11.3 22.5 0.00 0.00 0.00 100
20260901175025 0 250 11.3 22.5 0.00 0.00 0.00 100
20260901173518 0 240 14.5 24.1 0.00 0.00 0.00 100
20260901172011 0 278 17.7 25.7 0.00 0.00 0.00 100
20260901170504 0 275 16.1 29.0 0.00 0.00 0.00 100
20260901164957 0 271 16.1 30.6 0.00 0.00 0.00 100
20260901163451 0 268 8.0 22.5 0.00 0.00 0.00 100
20260901161944 0 278 20.9 29.0 0.00 0.00 0.00 100
20260901153423 0 271 17.7 27.4 0.00 0.00 0.00 100
20260901151916 0 283 16.1 30.6 0.00 0.00 0.00 100
20260901150409 0 267 12.9 25.7 0.00 0.00 0.00 100
20260901144902 0 304 16.1 29.0 0.00 0.00 0.00 100
20260901143356 0 277 19.3 27.4 0.00 0.00 0.00 100
20260901141848 0 293 17.7 30.6 0.00 0.00 0.00 100
20260901140341 0 262 12.9 24.1 0.00 0.00 0.00 100
20260901134835 0 291 17.7 27.4 0.00 0.00 0.00 100
20260901133328 0 299 16.1 27.4 0.00 0.00 0.00 100
20260901131821 0 271 17.7 25.7 0.00 0.00 0.00 100
20260901130314 0 274 17.7 27.4 0.00 0.00 0.00 100
20260901124807 0 292 16.1 25.7 0.00 0.00 0.00 100
20260901121753 0 278 16.1 24.1 0.00 0.00 0.00 100
20260901120246 0 270 16.1 27.4 0.00 0.00 0.00 100
20260901114739 0 311 19.3 27.4 0.00 0.00 0.00 100
20260901113232 0 279 14.5 27.4 0.00 0.00 0.00 100
20260901110218 0 243 12.9 25.7 0.00 0.00 0.00 100
20260901104717 0 279 11.3 20.9 0.00 0.00 0.00 100
20260901103204 0 262 11.3 25.7 0.00 0.00 0.00 100
20260901101657 0 303 11.3 22.5 0.00 0.00 0.00 100
20260901100151 0 296 11.3 22.5 0.00 0.00 0.00 100
20260901094644 0 299 11.3 22.5 0.00 0.00 0.00 100
20260901093137 0 295 16.1 25.7 0.00 0.00 0.00 100
20260901091630 0 302 16.1 22.5 0.00 0.00 0.00 100
20260901090123 0 305 14.5 22.5 0.00 0.00 0.00 100
20260901084615 0 293 14.5 22.5 0.00 0.00 0.00 100
20260901083108 0 266 9.7 20.9 0.00 0.00 0.00 100
20260901080054 0 269 11.3 20.9 0.00 0.00 0.00 100
20260901071533 0 275 12.9 19.3 0.00 0.00 0.00 100
20260901070026 0 312 11.3 19.3 0.00 0.00 0.00 100
20260901063012 0 302 11.3 25.7 0.00 0.00 0.00 100
20260901061505 0 279 17.7 22.5 0.00 0.00 0.00 100
20260901054451 0 295 9.7 14.5 0.00 0.00 0.00 100
20260901052944 0 303 8.0 19.3 0.00 0.00 0.00 100
20260901051437 0 302 8.0 20.9 0.00 0.00 0.00 100
20260901045930 0 304 8.0 16.1 0.00 0.00 0.00 100
20260901044423 0 323 6.4 17.7 0.00 0.00 0.00 100
20260901042916 0 327 8.0 17.7 0.00 0.00 0.00 100
20260901041410 0 334 11.3 17.7 0.00 0.00 0.00 100
20260901035902 0 331 12.9 20.9 0.00 0.00 0.00 100
20260901032847 0 335 11.3 24.1 0.00 0.00 0.00 100
20260901031340 0 332 9.7 30.6 0.00 0.00 0.00 100
20260901025833 0 325 11.3 27.4 0.00 0.00 0.00 100